Weather History for Carlsbad, CA

Change the Weather History Date:

Thursday, March 29, 2012

  Actual Average Record
Temperature  
Mean Temperature 57 °F -  
Max Temperature 62 °F 60 °F 84 °F (2004)
Min Temperature 53 °F 49 °F 44 °F (1998)
Degree Days  
Heating Degree Days 8    
Growing Degree Days 7 (Base 50)    
Moisture  
Dew Point 53 °F    
Average Humidity 90    
Maximum Humidity 100    
Minimum Humidity 72    
Precipitation  
Precipitation 0.01 in - - ()
Sea Level Pressure  
Sea Level Pressure 30.03 in    
Wind  
Wind Speed 1 mph (WSW)    
Max Wind Speed 9 mph    
Max Gust Speed -    
Visibility 6 miles    
Events      
Averages and records for this station are not official NWS values.
T = Trace of Precipitation, MM = Missing Value Source: NWS Daily Summary

Daily Weather History Graph

Daily Weather History Graph

Search for Another Location

Airport:

Trip Planner

Search our weather history database for the weather conditions in past years. The results will help you decide how hot, cold, wet, or windy it might be!

Date:

Astronomy

Mar. 29, 2012 Rise Set
Actual Time 6:40 AM PDT 7:07 PM PDT
Civil Twilight 6:15 AM PDT 7:32 PM PDT
Nautical Twilight 5:46 AM PDT 8:01 PM PDT
Astronomical Twilight 5:16 AM PDT 8:31 PM PDT
Moon 11:08 AM PDT (3/29) 12:47 AM PDT (3/29)
Length of Visible Light 13h 17m
Length of Day
12h 27m
Waxing Crescent, 40% of the Moon is Illuminated
Mar 29
Waxing Crescent
Mar 30
First Quarter
Apr 6
Full
Apr 13
Last Quarter
Apr 21
New

Hourly Weather History & Observations

Time (PDT) Temp. Dew Point Humidity Pressure Visibility Wind Dir Wind Speed Gust Speed Precip Events Conditions
12:18 AM 55.4 °F 53.6 °F 94% 30.06 in 1.8 mi Calm Calm - N/A   Overcast
12:28 AM 55.4 °F 53.6 °F 94% 30.06 in 3.0 mi Calm Calm - N/A   Overcast
12:53 AM 55.9 °F 53.1 °F 90% 30.05 in 7.0 mi WSW 4.6 mph - N/A   Overcast
1:53 AM 55.0 °F 54.0 °F 96% 30.04 in 3.0 mi SW 3.5 mph - N/A   Overcast
2:12 AM 55.4 °F 53.6 °F 94% 30.04 in 1.8 mi SW 3.5 mph - N/A   Overcast
2:47 AM 53.6 °F 53.6 °F 100% 30.04 in 3.0 mi Calm Calm - N/A   Overcast
2:53 AM 54.0 °F 53.1 °F 97% 30.03 in 3.0 mi Calm Calm - N/A   Overcast
3:08 AM 55.4 °F 53.6 °F 94% 30.03 in 2.5 mi Calm Calm - N/A   Overcast
3:21 AM 53.6 °F 53.6 °F 100% 30.03 in 3.0 mi Calm Calm - N/A   Overcast
3:30 AM 55.4 °F 53.6 °F 94% 30.03 in 2.5 mi Calm Calm - N/A   Overcast
3:46 AM 55.4 °F 53.6 °F 94% 30.03 in 3.0 mi Calm Calm - N/A   Overcast
3:53 AM 54.0 °F 53.1 °F 97% 30.03 in 2.5 mi Calm Calm - N/A   Overcast
4:00 AM 53.6 °F 53.6 °F 100% 30.03 in 3.0 mi Calm Calm - N/A   Overcast
4:08 AM 53.6 °F 53.6 °F 100% 30.03 in 2.5 mi Calm Calm - N/A   Overcast
4:19 AM 55.4 °F 53.6 °F 94% 30.03 in 3.0 mi Calm Calm - N/A   Overcast
4:34 AM 53.6 °F 53.6 °F 100% 30.03 in 2.0 mi Calm Calm - N/A   Overcast
4:46 AM 53.6 °F 53.6 °F 100% 30.03 in 1.8 mi Calm Calm - N/A   Overcast
4:53 AM 54.0 °F 53.1 °F 97% 30.03 in 1.8 mi Calm Calm - N/A   Overcast
5:00 AM 53.6 °F 51.8 °F 94% 30.03 in 3.0 mi Calm Calm - N/A   Overcast
5:53 AM 54.0 °F 52.0 °F 93% 30.04 in 6.0 mi SW 3.5 mph - N/A   Overcast
6:08 AM 53.6 °F 51.8 °F 94% 30.05 in 2.5 mi Calm Calm - N/A   Overcast
6:18 AM 53.6 °F 53.6 °F 100% 30.05 in 3.0 mi Calm Calm - N/A   Overcast
6:41 AM 53.6 °F 51.8 °F 94% 30.05 in 10.0 mi Calm Calm - 0.01 in   Overcast
6:53 AM 54.0 °F 52.0 °F 93% 30.05 in 7.0 mi Calm Calm - 0.01 in   Overcast
7:53 AM 54.0 °F 52.0 °F 93% 30.06 in 8.0 mi Calm Calm - N/A   Overcast
8:53 AM 55.0 °F 52.0 °F 89% 30.07 in 8.0 mi Calm Calm - N/A   Overcast
9:53 AM 55.9 °F 52.0 °F 87% 30.08 in 10.0 mi Calm Calm - N/A   Overcast
10:53 AM 57.0 °F 52.0 °F 83% 30.06 in 10.0 mi Calm Calm - N/A   Overcast
11:53 AM 60.1 °F 53.1 °F 78% 30.02 in 10.0 mi SSW 3.5 mph - N/A   Mostly Cloudy
12:04 PM 60.8 °F 51.8 °F 72% 30.02 in 10.0 mi West 3.5 mph - N/A   Scattered Clouds
12:53 PM 61.0 °F 53.1 °F 75% 30.01 in 10.0 mi WSW 8.1 mph - N/A   Clear
1:42 PM 59.0 °F 51.8 °F 77% 30.00 in 10.0 mi WSW 9.2 mph - N/A   Mostly Cloudy
1:53 PM 57.9 °F 52.0 °F 81% 29.99 in 10.0 mi WSW 8.1 mph - N/A   Mostly Cloudy
2:53 PM 57.9 °F 52.0 °F 81% 29.99 in 10.0 mi Variable 5.8 mph - N/A   Overcast
3:53 PM 57.9 °F 52.0 °F 81% 29.99 in 10.0 mi West 5.8 mph - N/A   Overcast
4:53 PM 57.0 °F 52.0 °F 83% 29.99 in 10.0 mi WSW 8.1 mph - N/A   Overcast
5:53 PM 55.9 °F 51.1 °F 84% 30.01 in 10.0 mi West 4.6 mph - N/A   Overcast
6:53 PM 55.9 °F 51.1 °F 84% 30.01 in 9.0 mi SSW 5.8 mph - N/A   Overcast
7:53 PM 55.0 °F 51.1 °F 86% 30.03 in 8.0 mi Calm Calm - N/A   Overcast
8:53 PM 55.0 °F 51.1 °F 86% 30.04 in 7.0 mi Calm Calm - N/A   Overcast
9:53 PM 55.0 °F 51.1 °F 86% 30.04 in 7.0 mi Calm Calm - N/A   Overcast
10:53 PM 55.0 °F 51.1 °F 86% 30.04 in 7.0 mi Calm Calm - N/A   Overcast
11:53 PM 55.0 °F 51.1 °F 86% 30.04 in 6.0 mi Calm Calm - N/A   Overcast